Ketchikan, AK

12:53 PM AKST on February 19, 2018 (GMT -0900)
Ketchikan International

Weather History for PAKT - February, 2018

Change the Weather History Date:

Friday, February 16, 2018

  Actual Average Record
Temperature  
Mean Temperature 34 °F -  
Max Temperature 37 °F 41 °F 54 °F (1964)
Min Temperature 32 °F 30 °F 14 °F (1954)
Degree Days  
Heating Degree Days 30    
Moisture  
Dew Point 32 °F    
Average Humidity 90    
Maximum Humidity 96    
Minimum Humidity 81    
Precipitation  
Precipitation 0.00 in - - ()
Sea Level Pressure  
Sea Level Pressure 30.17 in    
Wind  
Wind Speed 4 mph (NW)    
Max Wind Speed 10 mph    
Max Gust Speed -    
Visibility 10 miles    
Events      
Averages and records for this station are not official NWS values.
T = Trace of Precipitation, MM = Missing Value Source: NWS Daily Summary

Daily Weather History Graph

Daily Weather History Graph

Search for Another Location

Airport or City:

Trip Planner

Search our weather history database for the weather conditions in past years. The results will help you decide how hot, cold, wet, or windy it might be!

Date:

Astronomy

Feb. 16, 2018 Rise Set
Actual Time 7:07 AM AKST 4:55 PM AKST
Civil Twilight 6:29 AM AKST 5:33 PM AKST
Nautical Twilight 5:46 AM AKST 6:15 PM AKST
Astronomical Twilight 5:04 AM AKST 6:58 PM AKST
Moon 7:43 AM AKST (2/16) 6:04 PM AKST (2/16)
Length of Visible Light 11h 03m
Length of Day
9h 47m
New Moon, 1% of the Moon is Illuminated
Feb 16
New Moon
Feb 22
First Quarter
Mar 1
Full
Mar 9
Last Quarter
Mar 17
New

Hourly Weather History & Observations

Time (AKST) Temp. Windchill Dew Point Humidity Pressure Visibility Wind Dir Wind Speed Gust Speed Precip Events Conditions
12:53 AM 36.0 °F 31.1 °F 33.1 °F 89% 30.15 in 10.0 mi NW 5.8 mph - N/A   Overcast
1:53 AM 37.0 °F 29.8 °F 33.1 °F 86% 30.16 in 10.0 mi NNW 10.4 mph - N/A   Overcast
2:53 AM 37.0 °F 31.6 °F 33.1 °F 86% 30.18 in 10.0 mi NNW 6.9 mph - N/A   Mostly Cloudy
3:29 AM 35.1 °F - 33.1 °F 92% 30.17 in 10.0 mi Calm Calm - N/A   Mostly Cloudy
3:53 AM 35.1 °F 32.2 °F 33.1 °F 92% 30.19 in 10.0 mi WNW 3.5 mph - N/A   Overcast
4:14 AM 35.1 °F 31.0 °F 33.1 °F 92% 30.18 in 10.0 mi WNW 4.6 mph - N/A   Overcast
4:53 AM 36.0 °F 32.1 °F 33.1 °F 89% 30.20 in 10.0 mi NW 4.6 mph - N/A   Overcast
5:53 AM 32.0 °F - 30.9 °F 96% 30.22 in 10.0 mi Calm Calm - N/A   Mostly Cloudy
6:08 AM 34.0 °F 29.8 °F 32.0 °F 92% 30.22 in 10.0 mi WNW 4.6 mph - N/A   Mostly Cloudy
6:53 AM 35.6 °F 32.8 °F 33.8 °F 93% 30.24 in 10.0 mi NW 3.5 mph - N/A   Overcast
7:53 AM 33.8 °F 30.8 °F 32.0 °F 93% 30.24 in 10.0 mi West 3.5 mph - N/A   Clear
8:53 AM 34.0 °F - 33.1 °F 96% 30.25 in 10.0 mi Calm Calm - N/A   Clear
9:12 AM 36.0 °F 33.3 °F 34.0 °F 93% 30.25 in 10.0 mi WNW 3.5 mph - N/A   Mostly Cloudy
9:53 AM 35.6 °F 30.7 °F 33.8 °F 93% 30.25 in 10.0 mi NNW 5.8 mph - N/A   Overcast
10:53 AM 37.4 °F 32.8 °F 33.8 °F 87% 30.27 in 10.0 mi NW 5.8 mph - N/A   Scattered Clouds
11:53 AM 37.4 °F 33.8 °F 33.8 °F 87% 30.25 in 10.0 mi WNW 4.6 mph - N/A   Scattered Clouds
12:53 PM 37.4 °F 33.8 °F 32.0 °F 81% 30.24 in 10.0 mi NW 4.6 mph - N/A   Scattered Clouds
1:53 PM 37.4 °F - 32.0 °F 81% 30.21 in 10.0 mi Calm Calm - N/A   Partly Cloudy
2:53 PM 37.4 °F 34.9 °F 33.8 °F 87% 30.18 in 10.0 mi SSE 3.5 mph - N/A   Overcast
3:53 PM 35.6 °F 31.7 °F 33.8 °F 93% 30.18 in 10.0 mi SSE 4.6 mph - N/A   Overcast
4:53 PM 35.6 °F 32.8 °F 32.0 °F 87% 30.14 in 10.0 mi SSW 3.5 mph - N/A   Mostly Cloudy
5:53 PM 33.8 °F - 30.2 °F 87% 30.12 in 10.0 mi Calm Calm - N/A   Clear
6:53 PM 32.0 °F - 30.9 °F 96% 30.11 in 10.0 mi Calm Calm - N/A   Clear
7:53 PM 32.0 °F - 30.9 °F 96% 30.10 in 10.0 mi Calm Calm - N/A   Clear
8:53 PM 33.1 °F 30.0 °F 30.0 °F 89% 30.06 in 10.0 mi North 3.5 mph - N/A   Clear
9:53 PM 32.0 °F - 30.0 °F 92% 30.05 in 10.0 mi Calm Calm - N/A   Clear
10:53 PM 33.1 °F 28.7 °F 30.0 °F 89% 30.03 in 10.0 mi WNW 4.6 mph - N/A   Clear
11:53 PM 33.1 °F 26.1 °F 28.0 °F 82% 30.01 in 10.0 mi NW 8.1 mph - N/A   Clear